User: anonymous   Login
Location: South Tamworth Observatory
(43.8246°N, 71.3026°W)
Time: 15:53:51
(UTC-04:00)
Language:

Cosmos 1844 - Orbit

View from above orbital plane
View from above orbital plane
View from above satellite
View from above satellite

Ground track
Ground track

The orbit data is extracted from the following two-line orbital elements,

1 17973U 87041A   18173.52166944 -.00000042  00000-0  32672-5 0  9996
2 17973  70.8968 213.0653 0033086 288.5546  71.1982 14.14064491605491
Epoch (UTC): 22 June 2018 12:31:12
Eccentricity: 0.0033086
inclination: 70.8968°
perigee height: 821 km
apogee height: 869 km
right ascension of ascending node: 213.0653°
argument of perigee: 288.5546°
revolutions per day: 14.14064491
mean anomaly at epoch: 71.1982°
orbit number at epoch: 60549

The dashed part of the orbit path shows where the satellite is in the earth's shadow,  

DLR